Total_Precipitation_Accumulation
0.00 0.01 0.02 0.02 0.03 0.07 0.10 0.14 0.22 0.28 0.18 0.21 0.37 0.58 0.78 0.92 1.07 1.14 1.31 1.30 1.51 1.78 1.94 2.32 2.67 3.14 3.58 4.08 4.80 5.43 5.86 5.87 5.72 5.40 5.05 4.79 4.28 3.92 3.64 3.34 3.13 2.91 2.65 2.58
0.01 0.02 0.02 0.03 0.03 0.05 0.09 0.16 0.28 0.29 0.19 0.20 0.37 0.63 0.90 0.98 0.93 0.96 1.18 1.29 1.37 1.58 1.89 2.25 2.76 3.04 3.40 3.91 4.46 4.87 4.88 4.56 4.46 4.50 4.42 4.18 4.15 3.94 3.82 3.54 3.35 2.94 2.78 2.69
0.03 0.04 0.02 0.03 0.05 0.05 0.09 0.14 0.21 0.25 0.26 0.29 0.41 0.80 1.07 1.09 0.94 0.87 0.91 1.02 1.15 1.30 1.51 1.86 2.42 2.73 2.93 3.40 3.72 3.74 3.64 3.48 3.54 3.63 3.62 3.71 3.90 3.89 3.83 3.68 3.40 3.09 2.94 2.86
0.02 0.03 0.03 0.04 0.07 0.06 0.11 0.09 0.12 0.15 0.25 0.48 0.55 1.01 1.32 1.40 1.27 1.03 0.92 1.03 1.10 1.21 1.27 1.57 1.90 2.13 2.40 2.65 2.75 2.74 2.82 2.85 2.89 2.97 3.03 2.94 2.94 3.13 3.33 3.53 3.56 3.47 3.21 2.98
0.03 0.04 0.05 0.05 0.06 0.08 0.08 0.07 0.10 0.14 0.22 0.38 0.50 0.78 1.28 1.57 1.64 1.28 1.02 0.93 0.89 1.04 1.29 1.50 1.60 1.77 1.87 1.89 1.98 2.05 2.34 2.68 2.81 2.91 3.03 2.94 2.63 2.60 2.64 2.77 2.93 2.92 2.89 2.72
0.04 0.05 0.06 0.05 0.05 0.07 0.08 0.12 0.20 0.31 0.46 0.70 0.65 0.72 1.15 1.42 1.54 1.22 1.01 0.91 0.79 0.81 1.00 1.23 1.49 1.58 1.53 1.49 1.64 1.84 2.15 2.58 2.83 2.89 2.84 2.80 2.70 2.66 2.57 2.56 2.60 2.47 2.44 2.36
0.15 0.13 0.10 0.06 0.07 0.08 0.10 0.18 0.55 0.95 1.28 1.29 0.77 0.73 0.97 1.02 0.97 0.97 0.84 0.78 0.82 0.76 0.76 0.78 0.97 1.22 1.19 1.15 1.30 1.57 1.77 2.11 2.36 2.46 2.43 2.35 2.46 2.56 2.43 2.28 2.21 2.13 2.02 1.93
0.19 0.23 0.14 0.09 0.08 0.08 0.09 0.13 0.41 0.70 0.90 1.01 0.83 1.14 1.27 0.96 0.80 0.70 0.59 0.57 0.66 0.62 0.57 0.56 0.63 0.80 1.02 1.01 1.06 1.18 1.43 1.69 1.90 1.97 2.06 2.17 2.32 2.40 2.35 2.50 2.29 2.12 1.83 1.69
0.08 0.11 0.10 0.09 0.09 0.10 0.10 0.09 0.15 0.26 0.41 0.70 0.96 1.17 1.15 0.97 0.91 0.73 0.54 0.47 0.49 0.49 0.48 0.49 0.56 0.76 0.79 0.77 0.81 0.92 1.17 1.36 1.52 1.66 1.82 1.89 1.86 1.89 2.04 2.22 2.21 2.04 1.96 1.77
0.05 0.05 0.07 0.09 0.10 0.12 0.11 0.10 0.12 0.20 0.36 0.56 0.87 1.23 1.31 1.22 1.06 0.89 0.78 0.57 0.46 0.46 0.49 0.48 0.49 0.57 0.58 0.58 0.70 0.94 1.11 1.15 1.37 1.66 1.84 1.75 1.77 1.73 1.88 1.92 1.93 1.97 1.91 1.89
0.04 0.04 0.07 0.09 0.13 0.15 0.15 0.13 0.12 0.16 0.21 0.36 0.75 1.00 0.94 0.97 0.91 0.88 0.77 0.64 0.55 0.49 0.48 0.49 0.49 0.49 0.58 0.52 0.62 0.79 0.93 1.07 1.36 1.66 1.89 1.91 1.80 1.81 1.87 1.78 1.74 1.86 1.89 1.87
0.05 0.05 0.07 0.12 0.18 0.17 0.16 0.16 0.16 0.23 0.22 0.25 0.41 0.67 0.55 0.65 0.76 0.79 0.63 0.55 0.50 0.39 0.40 0.39 0.37 0.42 0.42 0.42 0.54 0.84 1.15 1.49 1.66 1.92 2.20 2.24 2.01 1.81 1.70 1.57 1.56 1.73 1.90 1.92
0.05 0.06 0.14 0.31 0.34 0.25 0.18 0.14 0.15 0.17 0.18 0.21 0.41 0.63 0.50 0.57 0.67 0.67 0.62 0.54 0.50 0.49 0.43 0.42 0.39 0.47 0.45 0.43 0.46 0.60 0.75 1.09 1.41 1.74 2.05 2.06 1.82 1.60 1.55 1.54 1.58 1.71 1.84 1.85
0.06 0.05 0.10 0.26 0.33 0.32 0.27 0.21 0.17 0.14 0.17 0.21 0.29 0.53 0.55 0.61 0.55 0.57 0.50 0.47 0.55 0.63 0.56 0.52 0.49 0.47 0.47 0.46 0.45 0.54 0.62 0.71 0.92 1.33 1.61 1.64 1.49 1.42 1.43 1.48 1.51 1.51 1.55 1.60
0.07 0.07 0.05 0.06 0.15 0.22 0.23 0.22 0.19 0.15 0.13 0.25 0.28 0.37 0.48 0.65 0.62 0.60 0.56 0.49 0.49 0.57 0.57 0.54 0.54 0.58 0.59 0.65 0.65 0.64 0.65 0.68 0.86 1.25 1.45 1.43 1.38 1.38 1.33 1.33 1.42 1.48 1.54 1.58
0.10 0.10 0.10 0.10 0.14 0.16 0.16 0.20 0.18 0.13 0.11 0.10 0.16 0.31 0.36 0.58 0.72 0.69 0.66 0.62 0.60 0.59 0.55 0.53 0.47 0.57 0.66 0.71 0.73 0.72 0.75 0.78 0.91 1.18 1.40 1.38 1.35 1.31 1.24 1.28 1.36 1.51 1.62 1.78
0.16 0.15 0.15 0.16 0.19 0.17 0.25 0.21 0.17 0.15 0.14 0.15 0.23 0.37 0.36 0.42 0.59 0.70 0.68 0.62 0.57 0.60 0.53 0.53 0.57 0.66 0.85 0.79 0.80 0.85 0.81 0.85 0.98 1.23 1.41 1.43 1.37 1.36 1.34 1.30 1.44 1.64 1.82 1.98
0.29 0.27 0.25 0.21 0.25 0.36 0.28 0.21 0.22 0.25 0.28 0.29 0.32 0.36 0.39 0.50 0.57 0.70 0.86 0.72 0.57 0.61 0.63 0.70 0.67 0.74 0.82 0.81 0.84 0.89 0.90 0.93 1.05 1.26 1.48 1.53 1.46 1.48 1.55 1.54 1.62 1.86 2.08 2.22
0.34 0.39 0.36 0.31 0.34 0.41 0.38 0.30 0.34 0.38 0.43 0.45 0.49 0.43 0.47 0.53 0.64 0.77 0.73 0.71 0.75 0.74 0.74 0.79 0.87 0.89 0.96 0.97 0.94 0.97 1.09 1.11 1.19 1.27 1.45 1.57 1.62 1.69 1.70 1.73 1.91 2.13 2.30 2.33
0.37 0.45 0.49 0.44 0.52 0.59 0.58 0.43 0.37 0.45 0.77 0.61 0.63 0.62 0.55 0.57 0.83 0.95 0.79 0.71 0.71 0.81 0.90 0.89 0.94 0.98 1.01 1.05 1.11 1.14 1.25 1.38 1.49 1.58 1.68 1.88 2.07 2.24 2.30 2.32 2.37 2.41 2.49 2.45
0.65 0.62 0.61 0.66 0.76 0.71 0.57 0.50 0.45 0.85 1.18 0.87 0.84 0.82 0.72 0.83 0.94 0.93 0.80 0.74 0.69 0.72 0.86 0.93 0.93 1.01 1.10 1.11 1.23 1.42 1.51 1.62 1.77 1.92 2.00 2.21 2.50 2.68 2.67 2.66 2.58 2.50 2.53 2.55
0.87 0.83 0.83 0.89 1.12 1.18 0.66 0.61 0.95 1.19 1.01 1.03 1.04 1.01 0.94 0.91 0.97 0.97 0.94 0.78 0.70 0.71 0.78 0.89 0.94 1.00 1.17 1.41 1.60 1.84 1.95 1.95 2.05 2.21 2.38 2.58 2.78 2.71 2.65 2.82 2.73 2.70 2.76 2.72
0.92 0.98 1.06 1.14 1.35 1.15 0.81 0.93 1.10 1.09 1.06 1.10 1.07 1.02 0.91 0.86 1.01 0.96 0.88 0.85 0.71 0.69 0.76 0.85 0.93 1.05 1.23 1.50 1.88 2.13 2.19 2.31 2.35 2.43 2.58 2.68 2.74 2.88 3.02 3.08 2.98 2.87 2.83 2.74
1.09 0.99 1.17 1.38 1.46 1.23 1.08 1.06 1.03 1.06 1.08 1.04 0.97 0.92 0.92 0.87 0.89 0.88 0.81 0.79 0.74 0.73 0.81 0.86 0.94 1.12 1.37 1.61 1.93 2.08 2.15 2.20 2.24 2.29 2.30 2.39 2.54 2.66 2.76 3.01 3.05 2.95 2.80 2.69
1.29 1.18 1.39 1.77 1.85 1.71 1.58 1.34 1.16 1.14 1.10 1.13 1.09 1.00 0.97 0.93 0.88 0.80 0.78 0.76 0.76 0.75 0.85 0.93 1.02 1.14 1.27 1.48 1.68 1.78 1.95 2.04 2.20 2.25 2.19 2.15 2.18 2.32 2.44 2.56 2.65 2.60 2.57 2.39
1.40 1.45 1.70 2.06 1.80 1.74 1.86 1.59 1.38 1.32 1.29 1.33 1.34 1.31 1.18 1.08 1.02 0.92 0.85 0.77 0.74 0.73 0.83 0.94 1.05 1.18 1.28 1.44 1.64 1.73 1.87 1.95 2.03 2.05 1.99 1.99 1.99 2.07 2.13 2.14 2.07 1.90 1.81 1.66